sat.trackr.live / text

‹ back to catalog

STARLINK-5135

NORAD 54005 · 2022-125AT

PAYLOAD ACTIVE UNKNOWN

§ Identity

Operator
Country
US
Launch date
2022-10-05
Launch site
AFWTR
Launch vehicle
Mass (kg)
RCS (m²)

Purposes: comms

External: N2YO · Heavens-Above · Gunter

§ Orbital elements

Epoch: 2026-05-24T23:30:29.981952Z

Period
95.44 min
Inclination
53.2164°
Eccentricity
0.0001229
Mean motion
15.08837619 rev/d
Perigee alt
538.9 km
Apogee alt
540.6 km
Semi-major
6,917.9 km
B*
1.3432e-5
RAAN
231.3606°
Arg perigee
91.8015°
Mean anomaly
268.3118°
Rev number
20,098

§ Raw data

STARLINK-51351 54005U 22125AT  26144.97951368 -.00000074  00000+0  13432-4 0  99992 54005  53.2164 231.3606 0001229  91.8015 268.3118 15.08837619200982

JSON: /api/v1/satellites/54005 · /tle

For live sub-satellite position, see the globe view (requires WebGL).

§ Visibility from observer

Set your observer location to see the next 7 days of passes ≥ 10°. The values pass through the URL so the page stays shareable.

No JS? Fill the form by hand. The geolocation button needs JavaScript.